Showing default

SES 12, 43488

Orbit data source: Space-Track

SES 12, 43488 is a payload satellite owned by SES (LU) in GEO that was launched on Mon, 04 Jun 2018 UTC via an FALCON 9 launch vehicle from the Air Force Eastern Test Range (AFETR). Payloads include a variety of satellites, spacecraft, and rockets equipped with specific instruments for various scientific and technological missions. These include communications satellites like Starlink; space stations such as the ISS; scientific satellites like the Hubble; Earth observation satellites from companies like Planet Labs, Umbra, and HawkEye 360; GPS; miniature CubeSats for education and research; and military/defense satellites.

Not visible in the next 10 days
SES 12 details
Identifier
43488, 2018-049A
Orbit
GEO
Last TLE update13 hours ago
Origin
Flag of LUSES (LU / SES)
ManufacturerAirbus/Toulouse
MissionOperational Commercial Communications
Bus & MotorEUROSTAR 3000E, EOR
Mass5,384 kg wet, ~3,000 kg dry
Launch date (UTC)
2018-06-04 (7 years ago)
Launch vehicle
FALCON 9
Launch site
Air Force Eastern Test Range (AFETR)
Object type
Payload
Rocket body
Debris
Shape & HBRBox + 2 Pan, 39.3 m
Radar Cross Section49.877 m², Large (>1 m²)

Expand to show TLE details & history

TLE from 13 hours ago
0 SES 12
1 43488U 18049A   24339.89462903 -.00000249  00000-0  00000-0 0  9997
2 43488   0.0345  52.9870 0002381 215.3552 222.9329  1.00271037 23813
Epoch: 2024-12-04T21:28Z
Definitive object data (Epoch: 2024-12-04T21:28:15.948Z)
Latitude0.03788°
Longitude94.98261°
Altitude35,793.664 km
Speed3.074 km/s
True Right ascension08h 44m 55s
True Declination0° 02' 16"
Sunlit
Object was in daylight at TLE epoch
Visualization TLE readout
Latitude-0.03766°
Longitude-76.71872°
Altitude35,780.044 km
Speed3.075 km/s
Apparent Right ascension21h 09m 51s
Apparent Declination-5° 00' 22"
Sunlit
Object is in daylight
Visualization observer readout
Local Sidereal Time07:57:33
Azimuth330.249° NNW
Elevation-51.476°
Doppler factor1
Orbital elements
Apogee altitude35,797.915 km
Perigee altitude35,777.835 km
Semi-major axis42,166.012 km
Eccentricity0.0002381
Inclination0.0345°
RAAN52.987°
Arg. of periapsis215.3552°
True anomaly222.91432°
Mean anomaly222.9329°
Eccentric anomaly222.92361°
Mean motion0.25067 °/min
BSTARUnknown
Orbital period1436.16 mins
Loading historical data...
43488 neighbors
Authenticating...
Loading maneuver chart data...
Loading historical data...
Loading historical data...
Loading historical data...
Loading historical data...
Loading historical data...
Loading historical data...
Loading historical data...
Other satellites on launch #49 in the year 2018 (2018-06-04 UTC)

SES 12 Visibility forecast

Observer location: undefined°, undefined

SES 12 is not visible in the next 10 days
Span
Click to sort rows by Start time (UTC) header in descending order
Start Az.
Max El. time (UTC)
Max El. Az.
Max El.
End time (UTC)
End Az.
|